Regional Weather Roundup
Issued by NWS

Home | Current Version | Previous Version | Text Only | Print | Product List | Glossary Off
Versions: 1 2 3 4 5 6 7 8 9 10 11 12 13 14 15 16 17 18 19 20 21 22 23 24 25 26 27 28 29 30 31 32 33 34 35 36 37 38 39 40 41 42 43 44 45 46 47 48 49 50

011
ASUS43 KMPX 240401
RWRMN
WEATHER ROUNDUP FOR MINNESOTA
NATIONAL WEATHER SERVICE TWIN CITIES/CHANHASSEN MN
1000 PM CST TUE JAN 23 2018


NOTE: "FAIR" INDICATES FEW OR NO CLOUDS BELOW 12,000 FEET WITH NO
SIGNIFICANT WEATHER AND/OR OBSTRUCTIONS TO VISIBILITY. N/A MEANS
CURRENT SKY AND/OR WEATHER CONDITIONS ARE NOT AVAILABLE.

MNZ060>063-068>070-240500-
   Twin Cities Metro

CITY           SKY/WX    TMP DP  RH WIND       PRES   REMARKS
TWIN CITIES    MOCLDY    20  15  81 SE3       30.18S
ST PAUL        FAIR      18  13  80 E3        30.20R
CRYSTAL        FAIR      15  10  80 CALM      30.17R
BLAINE         FAIR      19  14  79 SE3       30.17S
LAKEVILLE        N/A     16  12  86 CALM      30.17S
EDEN PRAIRIE   FAIR      19  14  81 CALM      30.16S
SOUTH ST PAUL  FAIR      19  14  81 CALM      30.19S
LAKE ELMO      FAIR      12   9  85 CALM      30.19S
$$
MNZ001>005-007-008-013>017-022>024-027-028-240500-
   Northwest Minnesota

CITY           SKY/WX    TMP DP  RH WIND       PRES   REMARKS
BEMIDJI        CLOUDY    18  16  90 W5        30.12R WCI  11
HALLOCK        CLOUDY    23  19  86 W6        30.11F WCI  16
ROSEAU         LGT SNOW  19  16  86 S7        30.11S WCI  10
WARROAD        LGT SNOW  18  12  79 CALM      30.11S
THIEF RVR FALL MIX PCPN  21  19  93 SW8       30.13S FOG     WCI  12
CROOKSTON      MOCLDY    21  19  93 NW7       30.15S WCI  13
FOSSTON        CLOUDY    18  18 100 S5        30.13S FOG     WCI  11
DETROIT LAKES  CLOUDY    21  21 100 CALM      30.14R FOG
MOORHEAD       CLOUDY    21  18  86 NW13      30.18R WCI   9
PARK RAPIDS    CLOUDY    18  15  88 NW8       30.12R WCI   8
MAHNOMEN       CLOUDY    20  19  96 W5        30.13R FOG     WCI  14
$$
MNZ006-009>011-018-025>026-240500-
   North Central Minnesota

CITY           SKY/WX    TMP DP  RH WIND       PRES   REMARKS
BAUDETTE       CLOUDY    15   6  67 CALM      30.11R
FLAG ISLAND    CLOUDY    16   7  67 CALM      30.11R
INTL FALLS     CLOUDY     8  -2  63 SE7       30.12S WCI  -3
WASKISH        CLOUDY     9   5  85 CALM      30.13R
BIG FORK       CLOUDY     3   0  85 CALM      30.11S
LONGVILLE      FAIR       3   1  92 CALM      30.13R
GRAND RAPIDS   FAIR       4   1  88 S3        30.14R
CRANE LAKE     CLOUDY     3  -2  78 CALM      30.16F
ORR            FAIR       1  -4  78 CALM      30.10S
COOK           FAIR      -2  -6  84 CALM      30.13S
WALKER         MOCLDY     9   3  75 CALM      30.12R
$$
MNZ012-019>021-037-240500-
   Northeast Minnesota

CITY           SKY/WX    TMP DP  RH WIND       PRES   REMARKS
DULUTH         FAIR      13   1  59 N5        30.12R WCI   5
HIBBING        FAIR      -3  -5  90 NW3       30.12S
EVELETH        FAIR       0  -5  80 CALM      30.14R
DULUTH HARBOR  MOCLDY    16   9  73 CALM      30.19R
TWO HARBORS    FAIR      16   0  48 N5        30.13S WCI   9
SILVER BAY     MOCLDY     5  -2  72 CALM      30.14S
GRAND MARAIS     N/A     11 -10  38 N3        30.20R
G MARAIS ARPRT FAIR       1 -15  46 N6        30.09F WCI -10
$$
MNZ029>031-032-039>041-046>048-054>057-064-240500-
   West Central Minnesota

CITY           SKY/WX    TMP DP  RH WIND       PRES   REMARKS
FERGUS FALLS   CLOUDY    21  21 100 W5        30.15S WCI  15
WHEATON        CLOUDY    25  19  80 SW3       30.19R
MORRIS         CLOUDY    25  21  86 W3        30.15S
ALEXANDRIA     CLOUDY    21  19  92 NW8       30.14S WCI  11
ELBOW LAKE     CLOUDY    22  21  93 CALM      30.16R
WADENA         CLOUDY    19  18  93 W7        30.13S WCI  10
GLENWOOD       MOCLDY    21  19  93 NW9       30.15S WCI  11
APPLETON       CLOUDY    27  21  80 NW3       30.18R
BENSON         CLOUDY    25  19  80 NW5       30.18S WCI  19
MADISON        CLOUDY    28  23  80 CALM      30.18R
WILLMAR        CLOUDY    25  19  80 NW3       30.19R
$$
MNZ033>034-036-042>043-049>051-058-059-240500-
   Central Minnesota

CITY           SKY/WX    TMP DP  RH WIND       PRES   REMARKS
ST CLOUD       FAIR      17  12  80 CALM      30.15R
SAUK CENTRE      N/A     21  18  87 W6        30.16R WCI  13
PAYNESVILLE    CLOUDY    18  17  95 W3        30.17R
AITKIN         FAIR       5   1  85 CALM      30.12S
PINE RIVER     FAIR       5   1  85 CALM      30.17R
BRAINERD       FAIR      10   5  80 SW3       30.14R
STAPLES        CLOUDY    18  16  93 CALM      30.14R
LONG PRAIRIE   CLOUDY    19  18  93 CALM      30.15R
LITTLE FALLS   FAIR      18   9  68 CALM      30.16R
LITCHFIELD     FAIR      23  19  86 W3        30.17R
BUFFALO        FAIR      17  12  80 CALM      30.18R
MAPLE LAKE     FAIR      20  17  88 MISG      30.17R
HUTCHINSON     FAIR      21  18  88 W5        30.17S WCI  14
$$
MNZ037-044-045-052-053-240500-
   East Central Minnesota

CITY           SKY/WX    TMP DP  RH WIND       PRES   REMARKS
PRINCETON      FAIR      16  12  86 CALM      30.16R
MORA           FAIR      12   9  85 CALM      30.17S
CAMBRIDGE      FAIR      16   7  67 CALM      30.17S
RUSH CITY      FAIR      13   8  82 S3        30.18R
MOOSE LAKE     FAIR       9   5  85 CALM      30.13S
HINCKLEY       FAIR      10   9  92 CALM      30.16R
CLOQUET        FAIR       7   1  78 CALM      30.13R
MCGREGOR       FAIR       9   5  85 CALM      30.14S
$$
MNZ071>073-080-081-089-090-097-098-240500-
   Southwest Minnesota

CITY           SKY/WX    TMP DP  RH WIND       PRES   REMARKS
MONTEVIDEO     CLOUDY    25  19  80 NW5       30.18R WCI  19
GRANITE FALLS  CLOUDY    27  23  84 W7        30.19R WCI  20
CANBY          CLOUDY    26  23  89 NW5       30.18R WCI  21
MARSHALL       CLOUDY    25  22  88 NW7       30.18R WCI  17
REDWOOD FALLS  CLOUDY    24  20  84 CALM      30.17R
OLIVIA         CLOUDY    27  21  80 W5        30.16S WCI  21
PIPESTONE      CLOUDY    23  21  93 NW7       30.14S WCI  15
WINDOM         CLOUDY    23  10  58 W6        30.16S WCI  16
WORTHINGTON    CLOUDY    22  21  96 W10       30.16R WCI  11
JACKSON        CLOUDY    23  21  93 NW8       30.16S WCI  14
TRACY          CLOUDY    25  23  93 NW6       30.16R WCI  18
SLAYTON        CLOUDY    22  22  96 W10       30.16R FOG     WCI  12
$$
MNZ065>067-074>077-082>085-091>093-240500-
   South Central Minnesota

CITY           SKY/WX    TMP DP  RH WIND       PRES   REMARKS
MANKATO        FAIR      20  17  88 W6        30.18R WCI  12
NEW ULM        CLOUDY    12  10  92 W6        30.18R WCI   3
ST JAMES       CLOUDY    18  16  93 W7        30.19S WCI   8
FAIRMONT       CLOUDY    20  18  92 W6        30.18S WCI  12
FARIBAULT      FAIR      14  10  85 CALM      30.17R
OWATONNA       FAIR      14  12  92 CALM      30.16S
WASECA         FAIR      14  12  92 S3        30.18S
ALBERT LEA     MOCLDY    19  16  86 W5        30.16S WCI  13
$$
MNZ078>079-086>088-094>096-240500-
   Southeast Minnesota

CITY           SKY/WX    TMP DP  RH WIND       PRES   REMARKS
ROCHESTER      CLOUDY    15  13  91 W8        30.15R WCI   4
RED WING       FAIR      14   9  79 N3        30.19R
STANTON        FAIR      13  10  87 CALM      30.17S
DODGE CENTER   FAIR      12  10  92 W6        30.15R WCI   3
WINONA         FAIR      16  14  93 CALM      30.18S
PRESTON        FAIR      13  10  89 W5        30.16R WCI   5
$$
ABBREVIATIONS USED IN REMARKS
   TC - TEMPERATURES IN CELSIUS
  WCI - WIND CHILL INDEX
   HX - HEAT INDEX
  VSB - VISIBILITY
$$




USA.gov is the U.S. government's official web portal to all federal, state and local government web resources and services.